7QBTC FWKI-FWCL

Flight info

Callsign 7QBTC
Flight time 0h 28m
Altitude 23000
Route DVL TETEM VCL
Aircraft HDJT/L-SABDGRWY/H

Departure

Time 2026-04-21 13:01
Airport Kamuzu International Airport (FWKI)

Arrival

Time 2026-04-21 13:30
Airport Chileka International Airport (FWCL)
Time Latitude Longitude Altitude Speed Heading
2026-04-21 12:46 -13.78303 33.77867 4025 ft 0 kts 134°
2026-04-21 12:56 -13.78308 33.77868 4025 ft 1 kts 195°
2026-04-21 12:57 -13.78314 33.77846 4025 ft 5 kts 270°
2026-04-21 12:57 -13.78310 33.77814 4025 ft 4 kts 276°
2026-04-21 12:57 -13.78319 33.77793 4025 ft 3 kts 217°
2026-04-21 12:57 -13.78322 33.77790 4025 ft 0 kts 228°
2026-04-21 12:58 -13.78334 33.77775 4025 ft 8 kts 231°
2026-04-21 12:58 -13.78370 33.77692 4025 ft 19 kts 294°
2026-04-21 12:58 -13.78280 33.77577 4025 ft 22 kts 310°
2026-04-21 12:58 -13.78182 33.77478 4025 ft 18 kts 323°
2026-04-21 12:59 -13.78117 33.77385 4025 ft 15 kts 310°
2026-04-21 12:59 -13.78058 33.77313 4025 ft 12 kts 314°
2026-04-21 12:59 -13.78012 33.77257 4025 ft 9 kts 303°
2026-04-21 12:59 -13.77979 33.77214 4025 ft 6 kts 310°
2026-04-21 13:00 -13.77954 33.77183 4025 ft 6 kts 308°
2026-04-21 13:00 -13.77926 33.77144 4025 ft 10 kts 321°
2026-04-21 13:00 -13.77852 33.77059 4025 ft 20 kts 308°
2026-04-21 13:00 -13.77839 33.76923 4026 ft 20 kts 229°
2026-04-21 13:01 -13.77945 33.76883 4026 ft 12 kts 137°
2026-04-21 13:01 -13.78122 33.77089 4025 ft 75 kts 125°
2026-04-21 13:01 -13.78605 33.77690 4146 ft 131 kts 132°
2026-04-21 13:01 -13.79231 33.78446 4689 ft 149 kts 130°
2026-04-21 13:02 -13.79922 33.79248 5461 ft 149 kts 130°
2026-04-21 13:02 -13.80609 33.80061 6230 ft 151 kts 126°
2026-04-21 13:02 -13.82464 33.81438 7613 ft 191 kts 143°
2026-04-21 13:03 -13.83633 33.82260 8341 ft 216 kts 146°
2026-04-21 13:03 -13.85003 33.83098 9036 ft 240 kts 149°
2026-04-21 13:03 -13.86481 33.83942 10113 ft 244 kts 149°
2026-04-21 13:03 -13.87948 33.84805 11130 ft 251 kts 149°
2026-04-21 13:04 -13.89501 33.85727 12124 ft 256 kts 149°
2026-04-21 13:04 -13.91041 33.86634 13113 ft 260 kts 149°
2026-04-21 13:04 -13.92623 33.87569 14074 ft 264 kts 149°
2026-04-21 13:04 -13.94234 33.88518 15005 ft 268 kts 149°
2026-04-21 13:05 -13.95862 33.89480 15895 ft 272 kts 149°
2026-04-21 13:05 -13.97525 33.90462 16773 ft 276 kts 149°
2026-04-21 13:05 -13.99210 33.91455 17610 ft 280 kts 149°
2026-04-21 13:05 -14.00907 33.92460 18419 ft 284 kts 149°
2026-04-21 13:06 -14.02640 33.93483 19203 ft 288 kts 149°
2026-04-21 13:06 -14.04392 33.94517 19956 ft 292 kts 149°
2026-04-21 13:06 -14.06140 33.95551 20676 ft 295 kts 149°
2026-04-21 13:06 -14.07935 33.96610 21393 ft 299 kts 149°
2026-04-21 13:07 -14.09747 33.97684 21968 ft 303 kts 149°
2026-04-21 13:07 -14.11584 33.98770 22537 ft 306 kts 150°
2026-04-21 13:07 -14.13422 33.99856 23093 ft 299 kts 149°
2026-04-21 13:07 -14.15183 34.00897 23160 ft 289 kts 149°
2026-04-21 13:08 -14.16360 34.01594 23165 ft 301 kts 149°
2026-04-21 13:08 -14.18911 34.03105 23183 ft 329 kts 149°
2026-04-21 13:08 -14.20951 34.04312 23109 ft 348 kts 149°
2026-04-21 13:08 -14.23106 34.05589 23089 ft 362 kts 149°
2026-04-21 13:09 -14.25324 34.06898 23091 ft 373 kts 150°
2026-04-21 13:09 -14.27610 34.08254 23081 ft 382 kts 146°
2026-04-21 13:09 -14.29896 34.09610 23088 ft 383 kts 147°
2026-04-21 13:09 -14.32199 34.10971 23086 ft 381 kts 147°
2026-04-21 13:10 -14.34484 34.12327 23084 ft 381 kts 147°
2026-04-21 13:10 -14.36790 34.13695 23083 ft 374 kts 147°
2026-04-21 13:10 -14.38984 34.14987 23067 ft 355 kts 147°
2026-04-21 13:10 -14.41158 34.16286 23070 ft 366 kts 147°
2026-04-21 13:11 -14.42631 34.17168 23072 ft 372 kts 147°
2026-04-21 13:11 -14.44908 34.18512 23083 ft 381 kts 147°
2026-04-21 13:11 -14.47229 34.19884 23087 ft 387 kts 147°
2026-04-21 13:11 -14.49559 34.21271 23083 ft 382 kts 147°
2026-04-21 13:12 -14.51821 34.22609 23071 ft 369 kts 147°
2026-04-21 13:12 -14.54070 34.23948 23071 ft 377 kts 147°
2026-04-21 13:12 -14.56326 34.25295 23075 ft 378 kts 147°
2026-04-21 13:12 -14.58607 34.26640 23076 ft 377 kts 147°
2026-04-21 13:13 -14.60888 34.27996 23077 ft 377 kts 147°
2026-04-21 13:13 -14.63160 34.29353 23076 ft 377 kts 147°
2026-04-21 13:13 -14.65440 34.30706 23077 ft 377 kts 147°
2026-04-21 13:13 -14.67688 34.32041 23077 ft 377 kts 147°
2026-04-21 13:14 -14.69961 34.33396 23076 ft 377 kts 147°
2026-04-21 13:14 -14.72259 34.34765 23077 ft 377 kts 147°
2026-04-21 13:14 -14.74513 34.36103 23077 ft 377 kts 147°
2026-04-21 13:14 -14.76783 34.37457 23077 ft 377 kts 147°
2026-04-21 13:15 -14.79007 34.38783 22778 ft 357 kts 147°
2026-04-21 13:15 -14.81101 34.40026 22325 ft 340 kts 147°
2026-04-21 13:15 -14.83147 34.41248 21879 ft 335 kts 146°
2026-04-21 13:15 -14.85159 34.42455 21434 ft 333 kts 147°
2026-04-21 13:16 -14.87154 34.43643 20997 ft 329 kts 147°
2026-04-21 13:16 -14.89109 34.44806 20570 ft 328 kts 147°
2026-04-21 13:16 -14.91070 34.45977 20134 ft 326 kts 146°
2026-04-21 13:16 -14.93040 34.47156 19698 ft 324 kts 147°
2026-04-21 13:17 -14.94984 34.48314 19268 ft 321 kts 147°
2026-04-21 13:17 -14.96916 34.49467 18841 ft 319 kts 146°
2026-04-21 13:17 -14.98831 34.50613 18418 ft 317 kts 146°
2026-04-21 13:17 -15.00739 34.51752 17995 ft 315 kts 146°
2026-04-21 13:18 -15.02632 34.52883 17578 ft 313 kts 146°
2026-04-21 13:18 -15.04510 34.54007 17164 ft 311 kts 146°
2026-04-21 13:18 -15.06378 34.55124 16752 ft 308 kts 146°
2026-04-21 13:18 -15.08229 34.56226 16343 ft 306 kts 146°
2026-04-21 13:19 -15.10064 34.57326 15936 ft 304 kts 146°
2026-04-21 13:19 -15.11892 34.58419 15528 ft 303 kts 146°
2026-04-21 13:19 -15.13694 34.59496 15131 ft 301 kts 146°
2026-04-21 13:19 -15.15498 34.60578 14737 ft 299 kts 146°
2026-04-21 13:20 -15.17290 34.61651 14340 ft 297 kts 146°
2026-04-21 13:20 -15.19073 34.62717 13947 ft 295 kts 146°
2026-04-21 13:20 -15.20850 34.63783 13554 ft 293 kts 146°
2026-04-21 13:20 -15.22619 34.64839 13162 ft 291 kts 146°
2026-04-21 13:21 -15.24348 34.65875 12770 ft 290 kts 146°
2026-04-21 13:21 -15.26107 34.66930 12389 ft 288 kts 146°
2026-04-21 13:21 -15.27839 34.67966 12009 ft 286 kts 146°
2026-04-21 13:21 -15.29543 34.68989 11636 ft 284 kts 146°
2026-04-21 13:22 -15.31248 34.70010 11256 ft 283 kts 146°
2026-04-21 13:22 -15.32944 34.71028 10880 ft 281 kts 146°
2026-04-21 13:22 -15.34644 34.72046 10503 ft 280 kts 146°
2026-04-21 13:22 -15.36322 34.73054 10131 ft 278 kts 146°
2026-04-21 13:23 -15.37996 34.74059 9766 ft 277 kts 146°
2026-04-21 13:23 -15.39655 34.75051 9399 ft 275 kts 146°
2026-04-21 13:23 -15.41313 34.76049 9033 ft 273 kts 146°
2026-04-21 13:23 -15.42954 34.77035 8666 ft 272 kts 146°
2026-04-21 13:24 -15.44563 34.77998 8311 ft 270 kts 146°
2026-04-21 13:24 -15.46187 34.78974 7958 ft 269 kts 146°
2026-04-21 13:24 -15.47806 34.79950 7596 ft 268 kts 146°
2026-04-21 13:24 -15.49419 34.80916 7241 ft 267 kts 146°
2026-04-21 13:25 -15.51023 34.81881 6887 ft 265 kts 146°
2026-04-21 13:25 -15.52616 34.82826 6535 ft 264 kts 146°
2026-04-21 13:25 -15.54198 34.83780 6187 ft 262 kts 145°
2026-04-21 13:25 -15.55745 34.84734 5840 ft 253 kts 145°
2026-04-21 13:26 -15.57224 34.85649 5512 ft 244 kts 145°
2026-04-21 13:26 -15.58641 34.86519 5199 ft 236 kts 144°
2026-04-21 13:26 -15.60028 34.87357 4894 ft 222 kts 145°
2026-04-21 13:26 -15.61339 34.88141 4526 ft 213 kts 145°
2026-04-21 13:27 -15.62597 34.88892 4226 ft 203 kts 144°
2026-04-21 13:27 -15.63756 34.89566 3977 ft 175 kts 144°
2026-04-21 13:27 -15.64783 34.90071 3730 ft 155 kts 149°
2026-04-21 13:27 -15.65709 34.90494 3499 ft 141 kts 148°
2026-04-21 13:28 -15.66558 34.90923 3290 ft 128 kts 140°
2026-04-21 13:28 -15.67153 34.91550 3131 ft 117 kts 118°
2026-04-21 13:28 -15.67384 34.92317 3066 ft 109 kts 92°
2026-04-21 13:28 -15.67433 34.93082 3033 ft 101 kts 92°
2026-04-21 13:29 -15.67518 34.93784 2862 ft 97 kts 92°
2026-04-21 13:29 -15.67588 34.94445 2725 ft 94 kts 94°
2026-04-21 13:29 -15.67660 34.95164 2644 ft 102 kts 94°
2026-04-21 13:29 -15.67741 34.95902 2520 ft 101 kts 94°
2026-04-21 13:30 -15.67812 34.96568 2464 ft 83 kts 94°
2026-04-21 13:30 -15.67867 34.97065 2465 ft 57 kts 97°
2026-04-21 13:30 -15.67901 34.97376 2462 ft 29 kts 101°
2026-04-21 13:30 -15.68004 34.97484 2464 ft 18 kts 141°
2026-04-21 13:31 -15.68085 34.97510 2462 ft 10 kts 256°
2026-04-21 13:31 -15.68086 34.97457 2462 ft 4 kts 290°
2026-04-21 13:31 -15.68080 34.97435 2468 ft 2 kts 279°
2026-04-21 13:31 -15.68077 34.97395 2462 ft 10 kts 270°
2026-04-21 13:32 -15.68103 34.97392 2462 ft 7 kts 168°
2026-04-21 13:32 -15.68126 34.97388 2463 ft 1 kts 250°
2026-04-21 13:32 -15.68126 34.97384 2463 ft 0 kts 275°